Location: Newark
(48.5156°N, 1.8989°W)
Time: 22:13:51
(UTC+00:00)

S-56A Canister/Altair - All Passes

Search period start: 11 November 2019 00:00
Search period end: 21 November 2019 00:00
Orbit: 634 x 2498 km, 38.9° (Epoch: 10 November)

Date Brightness Start Highest point End Pass type
(mag) Time Alt. Az. Time Alt. Az. Time Alt. Az.
11 Nov - 00:28:59 10° SW 00:31:27 15° SSW 00:34:00 10° SSE night (unlit)
11 Nov - 19:48:45 10° SSW 19:53:18 21° SSE 19:57:02 10° ESE visible
11 Nov - 21:52:00 10° WSW 21:56:16 26° S 22:00:01 10° SE night (unlit)
11 Nov - 23:56:13 10° WSW 23:58:58 16° SSW 00:01:46 10° SSE night (unlit)
12 Nov - 19:15:53 10° SSW 19:20:44 21° SSE 19:24:38 10° ESE visible
12 Nov - 21:19:10 10° WSW 21:23:47 28° S 21:27:40 10° ESE visible
12 Nov - 23:23:25 10° WSW 23:26:30 18° SSW 23:29:31 10° SSE night (unlit)
13 Nov - 18:42:58 10° SSW 18:48:09 21° SSE 18:52:14 10° ESE visible
13 Nov - 20:46:16 10° WSW 20:51:17 29° S 20:55:20 10° ESE visible
13 Nov - 22:50:34 10° WSW 22:54:04 20° SSW 22:57:18 10° SSE night (unlit)
14 Nov - 18:10:01 10° SSW 18:15:30 21° SSE 18:19:49 10° ESE visible
14 Nov - 20:13:16 10° WSW 20:18:45 30° S 20:23:01 10° ESE visible
14 Nov - 22:17:40 10° WSW 22:21:36 22° SSW 22:25:05 10° SE night (unlit)
15 Nov - 17:37:00 10° SSW 17:42:50 21° SSE 17:47:23 10° ESE visible
15 Nov - 19:40:12 10° SW 19:46:12 31° S 19:50:42 10° ESE visible
15 Nov - 21:44:43 10° WSW 21:49:08 25° SSW 21:52:53 10° SE visible
16 Nov - 17:04:00 10° SSW 17:10:07 20° SSE 17:14:54 10° ESE visible
16 Nov - 19:07:04 10° SW 19:13:36 32° S 19:18:24 10° ESE visible
16 Nov - 21:11:42 10° WSW 21:16:39 27° SSW 21:20:39 10° SE visible
16 Nov - 23:18:25 10° SW 23:19:06 10° SSW 23:19:47 10° SSW night (unlit)
17 Nov - 16:30:58 10° SSW 16:37:22 20° SSE 16:42:23 10° ESE daylight
17 Nov - 18:33:52 10° SW 18:40:57 32° S 18:46:05 10° ESE visible
17 Nov - 20:38:35 10° WSW 20:44:08 30° SSW 20:48:27 10° SE visible
17 Nov - 22:44:28 10° WSW 22:46:39 13° SSW 22:48:42 10° S night (unlit)
18 Nov - 15:57:58 10° SSW 16:04:34 19° SSE 16:09:48 10° ESE daylight
18 Nov - 18:00:36 10° SW 18:08:17 33° S 18:13:45 10° ESE visible
18 Nov - 20:05:24 10° WSW 20:11:37 33° S 20:16:13 10° SE visible
18 Nov - 22:11:04 10° WSW 22:14:13 15° SSW 22:17:00 10° S night (unlit)
19 Nov - 15:24:59 10° S 15:31:44 19° SSE 15:37:08 10° ESE daylight
19 Nov - 17:27:18 10° SW 17:35:33 33° SSE 17:41:23 10° ESE visible
19 Nov - 19:32:09 10° WSW 19:39:01 35° S 19:43:59 10° ESE visible
19 Nov - 21:37:45 10° WSW 21:41:45 19° SSW 21:45:08 10° SSE visible
20 Nov - 14:52:05 10° S 14:58:51 18° SSE 15:04:22 10° ESE daylight
20 Nov - 16:53:58 10° SW 17:02:46 33° SSE 17:09:00 10° ESE visible
20 Nov - 18:58:49 10° WSW 19:06:25 38° S 19:11:44 10° ESE visible
20 Nov - 21:04:27 10° WSW 21:09:17 22° SSW 21:13:10 10° SSE visible
